[ hide orbit diagram ]
For accurate long-term ephemerides, please instead use our Horizons system.This orbit viewer was implemented using two-body methods, and hence should not be used for determining accurate long-term trajectories (over several years or decades) or planetary encounter circumstances.
Orbital Elements at Epoch 2459200.5 (2020-Dec-17.0) TDB
Reference: JPL 33 (heliocentric ecliptic J2000)
Element | Value | Uncertainty (1-sigma) | Units |
e | .8447219231593999 | 5.4473e-05 | |
a | 491.4069111156014 | 0.16955 | au |
q | 76.30472010421032 | 0.0019275 | au |
i | 11.93098342226964 | 3.6893e-06 | deg |
node | 144.2226383320441 | 0.00049464 | deg |
peri | 311.2368704082627 | 0.0034381 | deg |
M | 358.1818137738734 | 0.00092079 | deg |
tp | 2479295.877990770736 (2075-Dec-24.37799077) | 1.2146 | TDB |
period | 3978875.195908404 10893.57 | 2059.3 5.638 | d yr |
n | 9.047783161688478E-5 | 4.6828e-08 | deg/d |
Q | 906.5091021269925 | 0.31278 | au |
|
| | Orbit Determination Parameters
Additional Information
|
[ show covariance matrix ]
Physical Parameter Table
Parameter |
Symbol |
Value |
Units |
Sigma |
Reference |
Notes |
absolute magnitude |
H |
1.3 |
|
n/a |
MPO468887 |
|
rotation period |
rot_per |
10.273 |
h |
n/a |
LCDB (Rev. 2020-October); Warner et al., 2009 |
Result based on less than full coverage, so that the period may be wrong by 30 percent or so. Published Reference List: [Gaudi, B.S.; Stanek, K.Z.; Hartman, J.D.; Holman, M.J.; McLeod, B.A. (2005) Astrophys. J. Let. 629, L49-L52.] |
|
90377 Sedna | Discovered 2003 Nov. 14 by M. E. Brown, C. A. Trujillo and D. Rabinowitz at Palomar. |
Sedna is the Inuit goddess of the sea and the mother of all sea creatures. She rewards the people of the land with food from the sea. Without her blessing, hunts fail and the people starve. She is thus one of the most important figures in Inuit legend. |
NOTE: some special characters may not display properly (any characters within {} are an attempt to place the proper accent above a character) |
Reference: 20040928/MPCPages.arc | Last Updated: 2004-09-28 |
|
|